Location: Centerville
(32.8776°N, 96.6203°W)
Time: 11:16:33
(UTC+00:00)

Cosmos 2237 - Pass Details

Date: 25 October 2021
Orbit: 845 x 856 km, 70.8° (Epoch: 08 December)

Event Time Altitude Azimuth Distance (km) Brightness Sun altitude
Rises 01:52:59 0° 240° (WSW) 3,407 8.2 -28.0°
Reaches altitude 10° 01:56:11 10° 258° (WSW) 2,477 7.5 -28.6°
Maximum altitude 02:00:05 19° 302° (WNW) 1,940 6.7 -29.4°
Drops below altitude 10° 02:04:00 10° 346° (NNW) 2,489 6.8 -30.3°
Sets 02:07:15 0° 4° (N) 3,430 7.4 -30.9°
